Regional Weather Roundup
Issued by NWS

Home | Current Version | Previous Version | Text Only | Print | Product List | Glossary On
Versions: 1 2 3 4 5 6 7 8 9 10 11 12 13 14 15 16 17 18 19 20 21 22 23 24 25 26 27 28 29 30 31 32 33 34 35 36 37 38 39 40 41 42 43 44 45 46 47 48 49 50
000
ASHW40 PHFO 010343
RWRHI

WEATHER ROUNDUP FOR HAWAII
NATIONAL WEATHER SERVICE HONOLULU HI
500 PM HST FRI JUL 31 2015

THIS IS AN AUTOMATED REPORT THAT HAS NOT BEEN QUALITY CONTROLLED.

NOTE..."FAIR" INDICATES FEW OR NO CLOUDS BELOW 12,000 FEET WITH NO
SIGNIFICANT WEATHER AND/OR OBSTRUCTIONS TO VISIBILITY.

* - THESE SITES REPORT LIMITED FIELDS

HIZ001>004-010400-
KAUAI-NIIHAU-

CITY           SKY/WX    TMP DP  RH WIND       PRES   REMARKS
LIHUE APT      MOSUNNY   84  73  70 NE17      29.97F HX  91
PORT ALLEN*    NOT AVBL
POIPU*           N/A     84 N/A N/A NE9G21      N/A
PRINCEVILLE*     N/A     82 N/A N/A MISG        N/A
KOKOLE POINT*  NOT AVBL
MOLOAA DAIRY*  NOT AVBL
WAIMEA HTS*      N/A     86  66  51 E5G14       N/A
PUU OPAE*        N/A     79  68  69 W3G13       N/A
PUU LUA*       NOT AVBL
MAKAHA RIDGE*    N/A     84  68  58 SW2G8       N/A
$$

HIZ005>011-010400-
OAHU-

CITY           SKY/WX    TMP DP  RH WIND       PRES   REMARKS
HONOLULU       MOSUNNY   87  69  54 NE17G25   29.92F HX  91
KALAELOA       MOSUNNY   88  67  49 E8G16     29.93F HX  91
KANEOHE MCB    PTSUNNY   83  71  67 E12G20    29.92F
WHEELER FIELD  MOSUNNY   83  65  54 NE8G16    29.97F
BELLOWS*         N/A    N/A N/A N/A NE17        N/A
KAHUKU*          N/A    N/A N/A N/A NE12G21     N/A
WHEELER*       NOT AVBL
WAIANAE HARBOR NOT AVBL
DILLINGHAM*      N/A     90  66  45 MISG        N/A  HX  92
KAHUKU TRN*      N/A     81  68  65 E12G24      N/A
KAWAILOA*        N/A     79  68  69 E10G20      N/A
KII*             N/A     82  73  74 E18G24      N/A
MAKUA RANGE*     N/A     90  63  40 E9G21       N/A  HX  90
OAHU FOREST NW   N/A     70  68  94 CALM        N/A
SCHOFIELD BRK*   N/A     81  66  61 MISG        N/A
SCHOFIELD S*   NOT AVBL
WAIANAE VLY*     N/A     91  73  55 MISG        N/A  HX 100
KUAOKALA*        N/A     81  70  69 E16G31      N/A
HONOULIUULI*   NOT AVBL
MOKUOLOE IS*     N/A    N/A N/A N/A MISG        N/A
PALEHUA*         N/A     73  64  73 NE7G24      N/A
WAIAWA PHB*    NOT AVBL
$$

HIZ012>013-010400-
MOLOKAI-

CITY           SKY/WX    TMP DP  RH WIND       PRES   REMARKS
MOLOKAI AIRPT  MOSUNNY   83  70  64 NE15G24   29.95R
KALAUPAPA      NOT AVBL
MAKAPULAPAI*     N/A     84  72  65 E18G25      N/A
MOLOKAI 1*       N/A     73  64  73 W2G10       N/A
PUU ALII*        N/A     66  64  94 CALM        N/A
$$

HIZ016-010400-
KAHOOLAWE-

CITY           SKY/WX    TMP DP  RH WIND       PRES   REMARKS
KAHOOLAWE*       N/A     77 N/A N/A E17G28      N/A
HAKIOAWA*        N/A     80  70  70 CALM      30.36R
HONOKANAIA*      N/A     85  71  63 E18G35    29.93F HX  90
KANELOA*         N/A     79  70  73 E20G36      N/A
KEALIALALO*      N/A     82  68  61 E18G37    29.93S
LUA MAKIKA*    NOT AVBL
$$

HIZ014>015-010400-
LANAI-

CITY           SKY/WX    TMP DP  RH WIND       PRES   REMARKS
LANAI CITY     FAIR      80  70  71 NE22      29.98F
LANAI 1*         N/A     79  72  78 NE18G28     N/A
$$

HIZ017>028-010400-
MAUI-

CITY           SKY/WX    TMP DP  RH WIND       PRES   REMARKS
KAHULUI        MOSUNNY   86  69  56 NE26G33   29.92S HX  90
KAPALUA-W MAUI MOSUNNY   82  70  65 NE20G25   29.95
HANA AIRPORT   CLOUDY    77  75  94 CALM      29.99S
HANA*            N/A     81 N/A N/A E8G22       N/A
HALEAKALA SUMM NOT AVBL
MAALAEA BAY*   NOT AVBL
HALEAKALA*     NOT AVBL
KAUPO GAP*       N/A     75  64  69 NE12G22     N/A
KULA 1*          N/A     62  60  93 W3G10       N/A
$$

HIZ023>026-010400-
BIG ISLAND OF HAWAII COAST AND LOWER SLOPES-

CITY           SKY/WX    TMP DP  RH WIND       PRES   REMARKS
KAILUA KONA    MOSUNNY   85  73  67 SW7       29.89S HX  91
HILO           PTSUNNY   82  73  74 N7        29.94F
HONOKAA*       NOT AVBL
KAWAIHAE MWT*    N/A     86 N/A N/A W8          N/A
KAWAIHAE*        N/A     82 N/A N/A SW8         N/A
SOUTH POINT*     N/A     81 N/A N/A NE15G24     N/A
UPOLU AIRPORT*   N/A    N/A N/A N/A NE21G31     N/A
KAMUELA*       PTCLDY    73  66  78 NE22      30.02F
HAKALAU*         N/A     63  55  74 E5          N/A
KALOKO-HONOKO*   N/A     82  73  74 NW3       29.89R
PALI 2*          N/A     79  61  53 N25G35      N/A
KEALAKOMO*       N/A     61  39  44 NE22G31     N/A
KAUPULEHU*       N/A     81  70  69 S7G18       N/A
KAPAPALA*        N/A     85  61  43 NE7G14      N/A
LOWER KAHUKU*    N/A     72  68  88 NE2G10      N/A
PUHE CS*         N/A     88  73  62 SW3G10      N/A  HX  96
PUHO CS*         N/A     83  70  64 NW3G9       N/A
PTA KEAMUKU*     N/A     75  63  64 CALM        N/A
WAIKOLOA*        N/A     81  68  65 N9G26       N/A
$$

HIZ027>028-010400-
BIG ISLAND OF HAWAII INTERIOR AND SUMMMITS-

CITY           SKY/WX    TMP DP  RH WIND       PRES   REMARKS
BRADSHAW FIELD MOSUNNY   70  55  60 S8G14     30.27S
MK VISITOR CEN NOT AVBL
MAUNA KEA*     NOT AVBL
MAUNA LOA*       N/A     59  10  14 MISG        N/A
MAUNA LOA 1*   NOT AVBL
PTA KIPUKA*      N/A     66  61  82 NW7G17      N/A
PTA RANGE 17*    N/A     68  61  77 W10G17      N/A
PTA WEST*        N/A     75  68  78 W14G22      N/A
NENE CABIN*      N/A     61  52  72 E6G15       N/A
AHUMOA*          N/A     64  60  87 SW7G15      N/A
PTA PORTABLE*  NOT AVBL
PUU MALI*        N/A     70  39  32 E18G26      N/A
$$

HIC003-010400-
NORTHWEST ISLANDS-

CITY           SKY/WX    TMP DP  RH WIND       PRES   REMARKS
MIDWAY ISLAND  MOSUNNY   82  72  69 E10       30.00F
MIDWAY NOS*    NOT AVBL
FRENCH FRIGATE NOT AVBL
$$

PHZ110>124-180-010400-
BUOY REPORTS

STATION/POSITION TIME  TEMP    WIND        PRES    WAVE   SWELL
                       AIR SEA DIR/SP/G            HT/PER HT/DIR
                 (UTC) (F)     (DEG/KT/KT) (MB)    (FT/S) (FT/D)
BUOY 51001       NOT AVBL
BUOY 51101       0300   81 81   90/ 14/ 17 1015.5F   6/ 7   3/120
BUOY 51100       NOT AVBL
BUOY 51002       0300   82 82   80/ 17/ 19 1011.0F   8/ 8   5/110
BUOY 51003       0300   82 83   80/ 16/ 17 1012.2F   6/ 8   3
BUOY 51004       0220   81 81   30/ 19/ 23 1010.2F   8/ 8   5/ 70
BARBERS PT BUOY  NOT AVBL
WAIMEA BAY BUOY  0300      81                N/A     4/ 7
KAILUA BAY BUOY  0300      81                N/A     6/ 6
LANAI BUOY       NOT AVBL
BARBERS PT 2     0300      82                N/A     4/15   2/190
PAUWELA MAUI     0300      79                N/A     5/ 8   2/ 70
HILO             NOT AVBL
KANEOHE BAY BUOY 0300      80                N/A     5/ 7
HANALEI KAUAI    0300      81                N/A     5/ 7   2/ 70
KAHULUI HARBOR   0300   81 82   40/ 22/ 26 1012.9F
HONOLULU HARBOR  0300   85 82  100/  6/ 13 1013.4F
KILO NALU        NOT AVBL
HILO HARBOR      0300   82 78   20/  9/ 11 1013.6R
MOKUOLOE         0300      84              1014.4S
NAWILIWILI       0300   81      40/ 12/ 17 1014.6S
WHOTS BUOY       NOT AVBL
BUOY 51028       NOT AVBL
$$

......................KEY........................................
  SKY/WX - SKY CONDITIONS/PRESENT WEATHER
  TMP    - TEMPERATURE IN FAHRENHEIT
  DWPT   - DEWPOINT IN FAHRENHEIT
  RH     - RELATIVE HUMIDITY IN PERCENT
  WIND   - DIRECTION AND SPEED /MPH FOR ISLANDS...KTS FOR BUOYS/
  PRES   - MEAN SEA LEVEL PRESSURE IN INCHES OF HG
  VSB    - VISIBILITY IN MILES
  HX     - HEAT INDEX
  WCI    - WIND CHILL INDEX
  VRB    - VARIABLE WIND DIRECTION
  N/A    - NOT AVAILABLE


USA.gov is the U.S. government's official web portal to all federal, state and local government web resources and services.